Location: ??????
(38.1303°N, 24.0039°E)
Time: 04:56:09
(UTC+00:00)

Cosmos 1766 Rocket - Pass Details

Date: 20 June 2021
Orbit: 604 x 634 km, 82.5° (Epoch: 30 July)

Event Time Altitude Azimuth Distance (km) Brightness Sun altitude
Exits shadow 01:21:59 28° 214° (SSW) 1,181 4.4 -15.8°
Maximum altitude 01:24:06 55° 279° (W) 762 3.8 -15.5°
Drops below altitude 10° 01:28:31 10° 358° (N) 2,022 6.8 -15.0°
Sets 01:30:49 0° 3° (N) 2,936 7.8 -14.7°
